sat.trackr.live / text

‹ back to catalog

STARLINK-34616

NORAD 66320 · 2025-253B

PAYLOAD ACTIVE UNKNOWN

§ Identity

Operator
Country
US
Launch date
2025-11-06
Launch site
AFETR
Launch vehicle
Mass (kg)
RCS (m²)

Purposes: comms

External: N2YO · Heavens-Above · Gunter

§ Orbital elements

Epoch: 2026-09-20T04:18:27.807264Z

Period
94.27 min
Inclination
43.0011°
Eccentricity
0.0001081
Mean motion
15.27588303 rev/d
Perigee alt
482.3 km
Apogee alt
483.8 km
Semi-major
6,861.2 km
B*
2.4001e-4
RAAN
193.7461°
Arg perigee
277.9809°
Mean anomaly
82.0920°
Rev number
5,007

§ Raw data

STARLINK-346161 66320U 25253B   26263.17948851  .00006350  00000+0  24001-3 0  99992 66320  43.0011 193.7461 0001081 277.9809  82.0920 15.27588303 50076

JSON: /api/v1/satellites/66320 · /tle

For live sub-satellite position, see the globe view (requires WebGL).

§ Visibility from observer

Set your observer location to see the next 7 days of passes ≥ 10°. The values pass through the URL so the page stays shareable.

No JS? Fill the form by hand. The geolocation button needs JavaScript.